Location: *
(41.0833°N, 73.4167°W)
Time: 12:31:48
(UTC+00:00)

Meteor PRIRODA - Pass Details

Date: 22 October 2019
Orbit: 491 x 511 km, 97.5° (Epoch: 21 November)

Event Time Altitude Azimuth Distance (km) Brightness Sun altitude
Rises 10:14:07 0° 4° (N) 2,631 7.3 -11.7°
Reaches altitude 10° 10:16:18 10° 356° (N) 1,739 6.3 -11.3°
Maximum altitude 10:19:48 39° 287° (WNW) 781 4.1 -10.7°
Drops below altitude 10° 10:23:16 10° 218° (SW) 1,718 6.0 -10.0°
Sets 10:25:25 0° 211° (SSW) 2,596 7.0 -9.6°
